Showing default

PROGRESS MS-29, 62030

Orbit data source: Space-Track

PROGRESS MS-29, 62030 is a payload satellite owned by RKKE (CIS) in LEO that was launched on Thu, 21 Nov 2024 UTC via a SOYUZ-2-1A launch vehicle from the Tyuratam Missile And Space Complex (TTMTR). Payloads include a variety of satellites, spacecraft, and rockets equipped with specific instruments for various scientific and technological missions. These include communications satellites like Starlink; space stations such as the ISS; scientific satellites like the Hubble; Earth observation satellites from companies like Planet Labs, Umbra, and HawkEye 360; GPS; miniature CubeSats for education and research; and military/defense satellites.

Loading next visibility...
PROGRESS MS-29 details
Identifier
62030, 2024-215A
Orbit
LEO
Last TLE update22 hours ago
Origin
Flag of CISRKKE (CIS)
ManufacturerTsSKB-Progress
MissionOperational spacecraft
Bus & Motor7K-TGM, 11D428A
Mass7,500 kg wet, 4,325 kg dry
Launch date (UTC)
2024-11-21 (1 month ago)
Launch vehicle
SOYUZ-2-1A
Launch site
Tyuratam Missile And Space Complex (TTMTR)
Object type
Payload
Rocket body
Debris
Shape & HBRUnknown
Radar Cross SectionLarge (>1 m²)

Expand to show TLE details & history

TLE from 22 hours ago
0 PROGRESS MS-29
1 62030U 24215A   24360.49619315  .00024109  00000-0  42581-3 0  9997
2 62030  51.6378  87.5169 0005682   4.6793 355.4249 15.50207956  5107
Epoch: 2024-12-25T11:54Z
Definitive object data (Epoch: 2024-12-25T11:54:31.088Z)
Latitude0.00006°
Longitude174.39831°
Altitude413.012 km
Speed7.667 km/s
True Right ascension05h 50m 04s
True Declination0° 00' 00"
Sunlit
Object was in full shadow at TLE epoch
Visualization TLE readout
Latitude47.37499°
Longitude-131.35367°
Altitude419.19 km
Speed7.667 km/s
Apparent Right ascension18h 18m 55s
Apparent Declination65° 45' 30"
Sunlit
Object is in full shadow
Visualization observer readout
Local Sidereal Time09:13:03
Azimuth17.622° NNE
Elevation20.903°
Doppler factor1
Orbital elements
Apogee altitude420.488 km
Perigee altitude412.766 km
Semi-major axis6,794.764 km
Eccentricity0.0005682
Inclination51.6378°
RAAN87.5169°
Arg. of periapsis4.6793°
True anomaly355.4197°
Mean anomaly355.4249°
Eccentric anomaly355.4223°
Mean motion3.87509 °/min
BSTAR0.00042581
Orbital period92.9 mins
Loading maneuver chart data...
Loading historical data...
Loading historical data...
Loading historical data...
Loading historical data...
Loading historical data...
Loading historical data...
Loading historical data...
Other satellites on launch #215 in the year 2024 (2024-11-21 UTC)

PROGRESS MS-29 Visibility forecast

Observer location: undefined°, undefined

Span
Click to sort rows by Start time (UTC) header in descending order
Start Az.
Max El. time (UTC)
Max El. Az.
Max El.
End time (UTC)
End Az.
4 mins2024-12-26 14:41:58.048Z339.378° N2024-12-26 14:42:58.048Z13.912° NNE32.454°2024-12-26 14:45:58.048Z100.541° ESE
4 mins2024-12-27 08:59:58.048Z261.355° W2024-12-27 09:01:58.048Z342.544° N36.251°2024-12-27 09:03:58.048Z37.457° NE
|